Погода в Ситниково

Россия / Тюменская область     56°21′57″N   67°50′16″E
темп.,
°C
ветер,
м/с
пор.,
м/с
влажн.,
%
обл.,
%
осадки,
мм/ч
давл.,
гПа
погр.,
м
25 мая, ср
ср2523:00+17ююв336088 0.0 101234
02:00+15ююв485487 0.0 1013105
05:00+14ююв4862100 0.0 1013116
08:00+19ююв41156100 0.0 1013287
11:00+24ююв71140100 0.0 1013720
14:00+27ююв7939100 0.0 10121988
17:00+24юв4948100 0.0 1012279
20:00+20вюв41066100 0.0 1011160
26 мая, чт
чт2623:00+20юв6145667 0.0 1011330
02:00+18юв5146091 0.0 1011268
05:00+17юв5156230 0.1 1010284
08:00+20юв5135971 0.0 1010442
11:00+25юв710425 0.0 1009992
14:00+27юв7104244 0.0 10081709
17:00+25вюв7114652 0.0 1006776
20:00+22в8185452 0.0 1004582
27 мая, пт
пт2723:00+20ююв41052100 0.2 1003268
02:00+18вюв5116798 0.6 1000314
05:00+15вюв5108139 0.8 999335
08:00+14в3696100 6.8 997417
11:00+10з111694100 14.4 1002681
14:00+10зсз101791100 1.7 1007955
17:00+13зсз813726 1.7 10101398
20:00+12з48764 0.0 1011306
28 мая, сб
сб2823:00+10зюз614761 0.0 1011332
02:00+9зюз614780 0.0 1011339
05:00+9зюз512830 0.0 1011267
08:00+14з611685 0.0 1012657
11:00+17з7105629 0.0 10121382
14:00+19зсз79505 0.0 10121756
17:00+19зсз585399 0.0 10131724
20:00+16з3574100 0.1 101497
29 мая, вс
вс2923:00+12з4784100 0.1 1016121
02:00+11зсз34842 0.0 101765
05:00+11з36885 0.0 1018107
08:00+17зюз35703 0.0 1019367
11:00+20зюз45597 0.0 10191249
14:00+21з5554100 0.0 10191490
17:00+21з456099 0.0 10191285
20:00+18зюз3577100 0.0 102098